Weather History for PASC - August, 2013

Change the Weather History Date:

Thursday, August 29, 2013

  Actual Average Record
Temperature  
Mean Temperature 40 °F -  
Max Temperature 44 °F 43 °F 57 °F (2010)
Min Temperature 37 °F 33 °F 27 °F (1986)
Degree Days  
Heating Degree Days 25    
Moisture  
Dew Point 38 °F    
Average Humidity 93    
Maximum Humidity 100    
Minimum Humidity 82    
Precipitation  
Precipitation 0.12 in - - ()
Sea Level Pressure  
Sea Level Pressure 29.79 in    
Wind  
Wind Speed 10 mph (NW)    
Max Wind Speed 15 mph    
Max Gust Speed -    
Visibility 6 miles    
Events Fog , Rain    
Averages and records for this station are not official NWS values.
T = Trace of Precipitation, MM = Missing Value Source: NWS Daily Summary

Daily Weather History Graph

Daily Weather History Graph

Search for Another Location

Airport or City:

Trip Planner

Search our weather history database for the weather conditions in past years. The results will help you decide how hot, cold, wet, or windy it might be!

Date:

Astronomy

Aug. 29, 2013 Rise Set
Actual Time 5:56 AM AKDT 9:49 PM AKDT
Civil Twilight 4:36 AM AKDT 11:08 PM AKDT
Nautical Twilight 2:27 AM AKDT 1:22 AM AKDT
Astronomical Twilight Sun does not rise Sun does not rise
Moon 9:44 PM AKDT (8/29) 8:29 PM AKDT (8/29)
Length of Visible Light 18h 31m
Length of Day
15h 52m
Last Quarter, 36% of the Moon is Illuminated
Aug 29
Last Quarter
Sep 5
New
Sep 12
First Quarter
Sep 19
Full
Sep 26
Last Quarter

Hourly Weather History & Observations

Time (AKDT) Temp. Windchill Dew Point Humidity Pressure Visibility Wind Dir Wind Speed Gust Speed Precip Events Conditions
12:53 AM 41.0 °F 36.4 °F 37.9 °F 89% 29.66 in 10.0 mi WNW 6.9 mph - N/A   Mostly Cloudy
1:53 AM 39.0 °F 34.0 °F 37.9 °F 96% 29.67 in 10.0 mi WNW 6.9 mph - N/A   Mostly Cloudy
2:27 AM 39.2 °F 30.8 °F 39.2 °F 100% 29.68 in 9.0 mi WNW 15.0 mph - N/A   Mostly Cloudy
2:33 AM 39.2 °F 31.6 °F 39.2 °F 100% 29.68 in 3.0 mi West 12.7 mph - N/A   Overcast
2:38 AM 39.2 °F 31.6 °F 39.2 °F 100% 29.68 in 0.8 mi WNW 12.7 mph - N/A   Overcast
2:53 AM 39.9 °F 31.8 °F 39.0 °F 97% 29.69 in 0.5 mi West 15.0 mph - N/A Fog Fog
3:03 AM 37.4 °F 28.9 °F 37.4 °F 100% 29.69 in 2.0 mi WNW 13.8 mph - N/A   Overcast
3:30 AM 37.4 °F 29.8 °F 37.4 °F 100% 29.70 in 1.0 mi WNW 11.5 mph - N/A   Mist
3:39 AM 37.4 °F 29.8 °F 37.4 °F 100% 29.70 in 0.5 mi West 11.5 mph - N/A Fog Fog
3:53 AM 39.0 °F 31.4 °F 37.9 °F 96% 29.71 in 0.5 mi WNW 12.7 mph - N/A Fog Fog
4:38 AM 37.4 °F 29.3 °F 37.4 °F 100% 29.72 in 1.0 mi West 12.7 mph - N/A   Overcast
4:53 AM 37.9 °F 30.0 °F 37.9 °F 100% 29.73 in 0.8 mi West 12.7 mph - N/A   Overcast
5:07 AM 37.4 °F 30.8 °F 37.4 °F 100% 29.73 in 1.0 mi West 9.2 mph - N/A   Overcast
5:26 AM 39.2 °F 33.0 °F 37.4 °F 93% 29.74 in 0.8 mi West 9.2 mph - N/A   Mist
5:53 AM 39.0 °F 31.8 °F 37.9 °F 96% 29.75 in 0.8 mi West 11.5 mph - 0.00 in Rain Light Rain
6:53 AM 39.0 °F 31.4 °F 37.9 °F 96% 29.76 in 3.0 mi WNW 12.7 mph - 0.10 in Rain Light Rain
7:39 AM 39.2 °F 31.6 °F 37.4 °F 93% 29.76 in 7.0 mi NW 12.7 mph - 0.01 in Rain Light Rain
7:53 AM 39.0 °F 31.8 °F 37.9 °F 96% 29.77 in 7.0 mi WNW 11.5 mph - 0.01 in Rain Light Rain
8:53 AM 39.9 °F 33.4 °F 39.0 °F 97% 29.78 in 7.0 mi WNW 10.4 mph - 0.01 in   Overcast
9:53 AM 41.0 °F 34.7 °F 39.0 °F 93% 29.79 in 10.0 mi WNW 10.4 mph - N/A   Overcast
10:53 AM 42.1 °F 37.7 °F 39.9 °F 92% 29.80 in 10.0 mi WNW 6.9 mph - N/A   Overcast
11:53 AM 42.1 °F 37.1 °F 41.0 °F 96% 29.81 in 2.0 mi WNW 8.1 mph - N/A   Overcast
12:10 PM 42.8 °F 37.0 °F 41.0 °F 93% 29.81 in 1.5 mi WNW 10.4 mph - 0.00 in Rain Light Rain
12:34 PM 42.8 °F 39.3 °F 41.0 °F 93% 29.82 in 4.0 mi NW 5.8 mph - 0.00 in   Overcast
12:53 PM 43.0 °F 38.8 °F 41.0 °F 93% 29.82 in 4.0 mi NNW 6.9 mph - 0.00 in   Overcast
1:53 PM 43.0 °F 37.7 °F 41.0 °F 93% 29.83 in 9.0 mi NW 9.2 mph - N/A   Overcast
2:53 PM 42.1 °F 36.1 °F 39.0 °F 89% 29.85 in 9.0 mi NNW 10.4 mph - N/A   Overcast
3:53 PM 43.0 °F 37.7 °F 37.9 °F 82% 29.86 in 10.0 mi WNW 9.2 mph - N/A   Overcast
4:53 PM 42.1 °F 37.1 °F 37.0 °F 82% 29.86 in 10.0 mi NW 8.1 mph - N/A   Overcast
5:53 PM 42.1 °F 37.1 °F 37.0 °F 82% 29.87 in 10.0 mi North 8.1 mph - N/A   Overcast
6:53 PM 39.9 °F 34.5 °F 36.0 °F 86% 29.88 in 10.0 mi NNW 8.1 mph - N/A   Overcast
7:21 PM 39.2 °F 33.6 °F 35.6 °F 87% 29.87 in 10.0 mi North 8.1 mph - N/A   Overcast
7:40 PM 39.2 °F 34.2 °F 35.6 °F 87% 29.87 in 10.0 mi North 6.9 mph - N/A   Overcast
7:53 PM 39.0 °F 33.4 °F 35.1 °F 86% 29.88 in 10.0 mi North 8.1 mph - N/A   Overcast
8:53 PM 37.9 °F 34.4 °F 34.0 °F 86% 29.89 in 10.0 mi North 4.6 mph - N/A   Overcast
9:53 PM 37.9 °F 34.4 °F 34.0 °F 86% 29.89 in 10.0 mi North 4.6 mph - N/A   Overcast
10:45 PM 37.4 °F 32.8 °F 33.8 °F 87% 29.88 in 10.0 mi North 5.8 mph - N/A   Overcast
10:53 PM 37.9 °F 33.5 °F 34.0 °F 86% 29.88 in 10.0 mi North 5.8 mph - N/A   Overcast
11:43 PM 37.4 °F 32.1 °F 35.6 °F 93% 29.87 in 10.0 mi North 6.9 mph - N/A   Overcast
11:53 PM 37.0 °F 31.6 °F 34.0 °F 89% 29.87 in 10.0 mi North 6.9 mph - N/A   Overcast